When you browse on this site, cookies collect data to enhance your experience and personalize the content and advertising you see.
Visit our Privacy Policy to learn more. By continuing to use the site, you agree to this use of cookies and data.
  • In Belgien
  • Länderverzeichnis
  • Für 7 Tage
  • Wassertemperatur
  • Satellitenkarten
  • Wetterkarte
  • Widgets
  • user-avatar
    Anmelden

    Stündliche Wetter Douglasville

    Heute, 24 Januar, Donnerstag

    Zeit Temperatur Niederschläge Wind Luftdruck Luftfeuchtigkeit
    00:00 +11°C° 0 mm 1 m/S 725 mmHg 95%
    01:00 +10°C° 0.3 mm 2 m/S 726 mmHg 94%
    02:00 +10°C° 0.3 mm 3 m/S 726 mmHg 92%
    03:00 +10°C° 0.3 mm 4 m/S 727 mmHg 91%
    04:00 +7°C° 0 mm 5 m/S 727 mmHg 89%
    05:00 +5°C° 0 mm 5 m/S 728 mmHg 87%
    06:00 +3°C° 0 mm 5 m/S 728 mmHg 86%
    07:00 +2°C° 0 mm 5 m/S 729 mmHg 84%
    08:00 +1°C° 0 mm 5 m/S 729 mmHg 82%
    09:00 0°C° 0 mm 5 m/S 730 mmHg 80%
    10:00 +1°C° 0 mm 5 m/S 730 mmHg 75%
    11:00 +2°C° 0 mm 5 m/S 730 mmHg 69%
    12:00 +3°C° 0 mm 5 m/S 731 mmHg 64%
    13:00 +3°C° 0 mm 5 m/S 731 mmHg 59%
    14:00 +5°C° 0 mm 5 m/S 731 mmHg 54%
    15:00 +5°C° 0 mm 5 m/S 731 mmHg 49%
    16:00 +4°C° 0 mm 4 m/S 732 mmHg 54%
    17:00 +3°C° 0 mm 4 m/S 732 mmHg 59%
    18:00 +2°C° 0 mm 3 m/S 733 mmHg 63%
    19:00 +1°C° 0 mm 3 m/S 733 mmHg 64%
    20:00 +1°C° 0 mm 3 m/S 734 mmHg 65%
    21:00 -1°C° 0 mm 4 m/S 734 mmHg 66%
    22:00 -1°C° 0 mm 4 m/S 735 mmHg 68%
    23:00 -1°C° 0 mm 4 m/S 735 mmHg 69%

    Morgen, 25 Januar, Freitag

    Zeit Temperatur Niederschläge Wind Luftdruck Luftfeuchtigkeit
    00:00 -1°C° 0 mm 4 m/S 735 mmHg 70%
    01:00 -1°C° 0 mm 3 m/S 735 mmHg 72%
    02:00 -1°C° 0 mm 3 m/S 735 mmHg 74%
    03:00 -1°C° 0 mm 3 m/S 736 mmHg 75%
    04:00 -1°C° 0 mm 3 m/S 736 mmHg 77%
    05:00 -2°C° 0 mm 3 m/S 737 mmHg 79%
    06:00 -2°C° 0 mm 3 m/S 737 mmHg 81%
    07:00 -1°C° 0 mm 3 m/S 738 mmHg 73%
    08:00 -1°C° 0 mm 3 m/S 738 mmHg 66%
    09:00 -1°C° 0 mm 4 m/S 739 mmHg 58%
    10:00 0°C° 0 mm 4 m/S 738 mmHg 51%
    11:00 +3°C° 0 mm 3 m/S 738 mmHg 43%
    12:00 +4°C° 0 mm 3 m/S 738 mmHg 35%
    13:00 +4°C° 0 mm 3 m/S 738 mmHg 33%
    14:00 +4°C° 0 mm 4 m/S 737 mmHg 32%
    15:00 +5°C° 0 mm 4 m/S 737 mmHg 30%
    16:00 +3°C° 0 mm 3 m/S 737 mmHg 35%
    17:00 +1°C° 0 mm 3 m/S 738 mmHg 40%
    18:00 -1°C° 0 mm 2 m/S 738 mmHg 45%
    19:00 -1°C° 0 mm 2 m/S 738 mmHg 46%
    20:00 -2°C° 0 mm 2 m/S 738 mmHg 47%
    21:00 -3°C° 0 mm 2 m/S 738 mmHg 48%
    22:00 -3°C° 0 mm 2 m/S 738 mmHg 47%
    23:00 -1°C° 0 mm 1 m/S 738 mmHg 45%

    übermorgen, 26 Januar, Samstag

    Zeit Temperatur Niederschläge Wind Luftdruck Luftfeuchtigkeit
    00:00 -2°C° 0 mm 1 m/S 738 mmHg 44%
    01:00 -2°C° 0 mm 1 m/S 738 mmHg 43%
    02:00 -1°C° 0 mm 1 m/S 738 mmHg 42%
    03:00 -1°C° 0 mm 1 m/S 738 mmHg 40%
    04:00 -1°C° 0 mm 1 m/S 738 mmHg 40%
    05:00 -1°C° 0 mm 1 m/S 738 mmHg 40%
    06:00 -1°C° 0 mm 1 m/S 738 mmHg 40%
    07:00 0°C° 0 mm 1 m/S 739 mmHg 36%
    08:00 +2°C° 0 mm 1 m/S 739 mmHg 32%
    09:00 +4°C° 0 mm 1 m/S 739 mmHg 27%
    10:00 +4°C° 0 mm 2 m/S 739 mmHg 28%
    11:00 +6°C° 0 mm 2 m/S 738 mmHg 29%
    12:00 +8°C° 0 mm 3 m/S 738 mmHg 29%
    13:00 +8°C° 0 mm 3 m/S 737 mmHg 31%
    14:00 +8°C° 0 mm 3 m/S 737 mmHg 33%
    15:00 +8°C° 0 mm 3 m/S 736 mmHg 35%
    16:00 +7°C° 0 mm 3 m/S 736 mmHg 42%
    17:00 +5°C° 0 mm 2 m/S 736 mmHg 49%
    18:00 +4°C° 0 mm 1 m/S 736 mmHg 57%
    19:00 +3°C° 0 mm 1 m/S 737 mmHg 60%
    20:00 +3°C° 0 mm 1 m/S 737 mmHg 62%
    21:00 +2°C° 0 mm 1 m/S 737 mmHg 65%
    22:00 +2°C° 0 mm 1 m/S 737 mmHg 67%
    23:00 +2°C° 0 mm 1 m/S 737 mmHg 69%

    27 Januar, Sonntag

    Zeit Temperatur Niederschläge Wind Luftdruck Luftfeuchtigkeit
    00:00 +2°C° 0 mm 1 m/S 737 mmHg 72%
    01:00 +1°C° 0 mm 1 m/S 737 mmHg 74%
    02:00 +1°C° 0 mm 1 m/S 736 mmHg 76%
    03:00 +1°C° 0 mm 1 m/S 736 mmHg 79%
    04:00 +1°C° 0 mm 1 m/S 736 mmHg 80%
    05:00 +1°C° 0 mm 1 m/S 736 mmHg 82%
    06:00 +1°C° 0 mm 1 m/S 736 mmHg 84%
    07:00 +1°C° 0 mm 2 m/S 736 mmHg 79%
    08:00 +3°C° 0 mm 2 m/S 736 mmHg 74%
    09:00 +4°C° 0 mm 2 m/S 736 mmHg 69%
    10:00 +5°C° 0 mm 3 m/S 736 mmHg 63%
    11:00 +8°C° 0 mm 3 m/S 735 mmHg 56%
    12:00 +10°C° 0 mm 4 m/S 735 mmHg 50%
    13:00 +10°C° 0 mm 4 m/S 734 mmHg 48%
    14:00 +11°C° 0 mm 4 m/S 733 mmHg 47%
    15:00 +11°C° 0 mm 4 m/S 732 mmHg 45%
    16:00 +10°C° 0 mm 4 m/S 732 mmHg 54%
    17:00 +8°C° 0 mm 3 m/S 732 mmHg 63%
    18:00 +6°C° 0 mm 2 m/S 732 mmHg 72%
    19:00 +6°C° 0 mm 2 m/S 732 mmHg 73%
    20:00 +5°C° 0 mm 3 m/S 733 mmHg 73%
    21:00 +5°C° 0 mm 3 m/S 733 mmHg 74%
    22:00 +5°C° 0 mm 3 m/S 733 mmHg 77%
    23:00 +6°C° 0 mm 2 m/S 733 mmHg 81%

    28 Januar, Montag

    Zeit Temperatur Niederschläge Wind Luftdruck Luftfeuchtigkeit
    00:00 +5°C° 0 mm 2 m/S 733 mmHg 84%
    01:00 +5°C° 0 mm 2 m/S 732 mmHg 87%
    02:00 +5°C° 0 mm 1 m/S 732 mmHg 89%
    03:00 +4°C° 0 mm 1 m/S 732 mmHg 92%
    04:00 +4°C° 0 mm 1 m/S 732 mmHg 93%
    05:00 +4°C° 0 mm 1 m/S 732 mmHg 93%
    06:00 +4°C° 0 mm 1 m/S 732 mmHg 94%
    07:00 +5°C° 0 mm 1 m/S 733 mmHg 88%
    08:00 +7°C° 0 mm 1 m/S 733 mmHg 82%
    09:00 +9°C° 0 mm 1 m/S 733 mmHg 76%
    10:00 +10°C° 0 mm 2 m/S 733 mmHg 70%
    11:00 +11°C° 0 mm 3 m/S 733 mmHg 63%
    12:00 +13°C° 0 mm 3 m/S 732 mmHg 56%
    13:00 +14°C° 0 mm 3 m/S 732 mmHg 56%
    14:00 +14°C° 0 mm 4 m/S 731 mmHg 55%
    15:00 +14°C° 0 mm 4 m/S 730 mmHg 54%
    16:00 +13°C° 0 mm 3 m/S 730 mmHg 62%
    17:00 +11°C° 0 mm 3 m/S 731 mmHg 71%
    18:00 +9°C° 0 mm 2 m/S 731 mmHg 79%
    19:00 +9°C° 0 mm 2 m/S 731 mmHg 82%
    20:00 +9°C° 0 mm 2 m/S 731 mmHg 85%
    21:00 +8°C° 0 mm 2 m/S 731 mmHg 88%
    22:00 +8°C° 0 mm 2 m/S 731 mmHg 89%
    23:00 +8°C° 0 mm 2 m/S 730 mmHg 90%

    29 Januar, Dienstag

    Zeit Temperatur Niederschläge Wind Luftdruck Luftfeuchtigkeit
    00:00 +7°C° 0 mm 2 m/S 730 mmHg 91%
    01:00 +7°C° 0 mm 3 m/S 730 mmHg 90%
    02:00 +7°C° 0 mm 3 m/S 729 mmHg 90%
    03:00 +7°C° 0 mm 3 m/S 729 mmHg 89%
    04:00 +7°C° 0 mm 3 m/S 729 mmHg 90%
    05:00 +7°C° 0 mm 3 m/S 729 mmHg 90%
    06:00 +7°C° 0 mm 3 m/S 729 mmHg 91%
    07:00 +7°C° 0 mm 4 m/S 729 mmHg 86%
    08:00 +8°C° 0 mm 4 m/S 730 mmHg 81%
    09:00 +10°C° 0 mm 5 m/S 730 mmHg 76%
    10:00 +10°C° 0.1 mm 4 m/S 730 mmHg 78%
    11:00 +8°C° 0.1 mm 4 m/S 729 mmHg 80%
    12:00 +8°C° 0.1 mm 4 m/S 729 mmHg 82%
    13:00 +5°C° 0.5 mm 5 m/S 729 mmHg 83%
    14:00 +2°C° 0.5 mm 5 m/S 729 mmHg 84%
    15:00 -1°C° 0.5 mm 5 m/S 729 mmHg 84%
    16:00 -3°C° 0.4 mm 6 m/S 730 mmHg 84%
    17:00 -4°C° 0.4 mm 6 m/S 731 mmHg 84%
    18:00 -6°C° 0.4 mm 6 m/S 731 mmHg 84%
    19:00 -6°C° 0 mm 6 m/S 732 mmHg 81%
    20:00 -8°C° 0 mm 6 m/S 733 mmHg 78%
    21:00 -9°C° 0 mm 7 m/S 734 mmHg 75%
    22:00 -10°C° 0 mm 6 m/S 734 mmHg 69%
    23:00 -10°C° 0 mm 6 m/S 735 mmHg 63%
    Mehr zeigen